EW1898 Weather Reports


time (UTC)temp
C
wind
direction
speed
KPH
gust
KPH
rain 1hr
cm
rain 24hr
cm
rain mn
cm
humidity
%
barometer
mb
20260906053017 15 292 0.0 1.6 0.03 0.03 0.03 98 1013.0
20260906051517 15 292 0.0 4.8 0.03 0.03 0.03 98 1013.1
20260906050013 15 288 0.0 1.6 0.00 0.00 0.00 98 1013.1
20260906044516 15 287 0.0 1.6 0.00 0.00 0.00 98 1013.2
20260906043025 15 287 0.0 3.2 0.00 0.00 0.00 97 1013.1
20260906041509 16 294 0.0 3.2 0.00 0.00 0.00 97 1013.2
20260906040007 16 306 0.0 1.6 0.00 0.00 0.00 97 1013.1
20260906034506 16 130 0.0 0.0 0.00 0.00 0.00 97 1013.0
20260906033006 16 130 0.0 0.0 0.00 0.00 0.00 97 1012.9
20260906031510 16 130 0.0 0.0 0.00 0.00 0.00 97 1012.7
20260906030005 16 130 0.0 0.0 0.00 0.00 0.00 96 1012.9
20260906024504 16 130 0.0 0.0 0.00 0.00 0.00 96 1012.9
20260906023004 16 130 0.0 0.0 0.00 0.00 0.00 96 1012.7
20260906021505 16 130 0.0 0.0 0.00 0.00 0.00 96 1012.7
20260906020002 16 130 0.0 0.0 0.00 0.00 0.00 95 1012.7
20260906014504 16 130 0.0 0.0 0.00 0.00 0.00 95 1012.8
20260906013002 16 130 0.0 0.0 0.00 0.00 0.00 94 1012.9
20260906011601 16 130 0.0 0.0 0.00 0.00 0.00 94 1013.0
20260906010140 16 130 0.0 0.0 0.00 0.00 0.00 94 1012.8
20260906004614 16 130 0.0 0.0 0.00 0.00 0.00 93 1012.6
20260906003055 17 130 0.0 0.0 0.00 0.00 0.00 92 1012.5
20260906001603 17 130 0.0 0.0 0.00 0.00 0.00 90 1012.4
20260906000053 17 130 0.0 0.0 0.00 0.00 0.00 90 1012.5
20260905234552 17 130 0.0 0.0 0.00 0.00 0.00 89 1012.3
20260905233051 17 130 0.0 0.0 0.00 0.00 0.00 88 1012.2
20260905231550 17 130 0.0 0.0 0.00 0.00 0.00 87 1012.1
20260905230047 17 130 0.0 1.6 0.00 0.00 0.00 86 1011.8
20260905224547 17 130 0.0 1.6 0.00 0.00 0.00 85 1011.8
20260905223052 17 124 0.0 1.6 0.00 0.00 0.00 85 1011.6
20260905221544 17 124 0.0 3.2 0.00 0.00 0.00 85 1011.6
20260905220043 18 100 0.0 0.0 0.00 0.00 0.00 85 1011.6
20260905214544 17 99 0.0 0.0 0.00 0.00 0.00 86 1011.2
20260905213038 17 99 0.0 4.8 0.00 0.00 0.00 85 1011.0
20260905211537 18 103 0.0 6.4 0.00 0.00 0.00 85 1010.9
20260905210045 18 138 0.0 6.4 0.00 0.00 0.00 85 1010.8
20260905204535 19 35 0.0 14.5 0.00 0.00 0.00 81 1010.8
20260905203033 21 226 1.6 8.0 0.00 0.00 0.00 77 1010.5
20260905201532 20 162 0.0 6.4 0.00 0.00 0.00 77 1010.2
20260905200044 21 163 0.0 3.2 0.00 0.00 0.00 76 1010.1
20260905194529 21 137 0.0 9.7 0.00 0.00 0.00 75 1009.9
20260905193035 20 160 0.0 3.2 0.00 0.00 0.00 78 1009.9
20260905191528 20 159 0.0 9.7 0.00 0.00 0.00 78 1010.0
20260905190027 20 112 0.0 0.0 0.00 0.00 0.00 79 1010.1
20260905184534 20 119 0.0 4.8 0.00 0.00 0.00 80 1010.2
20260905183036 20 114 0.0 4.8 0.00 0.00 0.00 78 1010.0
20260905181526 21 73 0.0 8.0 0.00 0.00 0.00 79 1010.1
20260905180024 20 199 1.6 8.0 0.00 0.00 0.00 78 1010.1
20260905174525 21 151 0.0 6.4 0.00 0.00 0.00 74 1010.0
20260905173036 21 154 0.0 3.2 0.00 0.00 0.00 72 1009.9
20260905171522 21 142 3.2 8.0 0.00 0.00 0.00 72 1009.7
20260905170022 21 154 1.6 6.4 0.00 0.00 0.00 72 1009.8
20260905164522 21 293 0.0 1.6 0.00 0.00 0.00 75 1009.9
20260905163021 21 269 0.0 6.4 0.00 0.00 0.00 74 1009.8
20260905161520 21 156 1.6 14.5 0.00 0.00 0.00 72 1009.8
20260905160020 21 150 0.0 9.7 0.00 0.00 0.00 73 1009.9
20260905154515 21 212 0.0 6.4 0.00 0.00 0.00 78 1009.9
20260905153024 20 148 1.6 9.7 0.00 0.00 0.00 78 1010.0
20260905151512 20 295 0.0 4.8 0.00 0.00 0.00 79 1010.0
20260905150017 20 298 0.0 6.4 0.00 0.00 0.00 80 1009.9
20260905144513 20 295 0.0 3.2 0.00 0.00 0.00 82 1010.0
20260905143006 19 264 0.0 3.2 0.00 0.00 0.00 84 1010.1
20260905141504 19 295 0.0 1.6 0.00 0.00 0.00 85 1010.1
20260905140001 18 295 0.0 1.6 0.00 0.00 0.00 86 1010.1
20260905134559 18 295 0.0 1.6 0.00 0.00 0.00 87 1010.0
20260905133055 18 299 0.0 3.2 0.00 0.00 0.00 87 1009.8
20260905131602 18 295 0.0 3.2 0.00 0.00 0.00 88 1009.7
20260905130051 17 277 0.0 4.8 0.00 0.00 0.00 88 1009.5
20260905124548 17 274 0.0 4.8 0.00 0.00 0.00 88 1009.5
20260905123104 17 293 0.0 3.2 0.00 0.00 0.00 89 1009.2
20260905121544 17 286 0.0 1.6 0.00 0.00 0.00 89 1009.0
20260905120043 17 279 1.6 6.4 0.00 0.00 0.00 89 1009.0
20260905114545 17 281 0.0 4.8 0.00 0.00 0.00 90 1008.9
20260905113041 17 286 0.0 3.2 0.00 0.00 0.00 90 1008.7
20260905111541 16 298 0.0 6.4 0.00 0.00 0.00 91 1008.7
20260905110040 16 290 0.0 3.2 0.00 0.00 0.00 92 1008.6
20260905104539 16 288 0.0 1.6 0.00 0.00 0.00 92 1008.6
20260905103048 16 293 0.0 0.0 0.00 0.00 0.00 91 1008.6
20260905101539 16 293 0.0 0.0 0.00 0.00 0.00 92 1008.5
20260905100049 16 293 0.0 0.0 0.00 0.00 0.00 92 1008.4
20260905094536 16 293 0.0 0.0 0.00 0.00 0.00 92 1008.2
20260905093035 16 293 0.0 0.0 0.00 0.00 0.00 92 1008.2
20260905091542 15 293 0.0 0.0 0.00 0.00 0.00 93 1008.1
20260905090032 15 293 0.0 0.0 0.00 0.00 0.00 91 1008.1
20260905084534 16 293 0.0 0.0 0.00 0.00 0.00 92 1008.0
20260905083033 15 293 0.0 0.0 0.00 0.00 0.00 92 1008.0
20260905081530 15 293 0.0 1.6 0.00 0.00 0.00 93 1008.0
20260905080048 15 293 0.0 1.6 0.00 0.00 0.00 92 1008.0
20260905074530 16 293 0.0 3.2 0.00 0.00 0.00 91 1008.0
20260905073027 16 294 0.0 1.6 0.00 0.00 0.00 90 1008.1
20260905071527 16 294 0.0 3.2 0.00 0.00 0.00 90 1008.2
20260905070031 16 294 0.0 3.2 0.00 0.00 0.00 90 1008.2
20260905064521 16 295 0.0 3.2 0.00 0.00 0.00 90 1008.3
20260905063018 16 295 0.0 3.2 0.00 0.00 0.00 89 1008.4
20260905061518 17 295 0.0 1.6 0.00 0.00 0.00 88 1008.6
20260905060035 16 295 0.0 3.2 0.00 0.00 0.00 88 1008.8
20260905054514 17 295 0.0 4.8 0.00 0.00 0.00 87 1008.7